Location: Staunton
(38.1490°N, 79.0720°W)
Time: 17:46:26
(UTC-04:00)

ISS - Pass Details

Date: 26 March 2017
Orbit: 399 x 409 km, 51.6° (Epoch: 26 March)

Event Time Altitude Azimuth Distance (km) Brightness Sun altitude
Rises 21:13:51 0° 228° (SW) 2,296 0.4 -19.9°
Reaches altitude 10° 21:15:54 10° 228° (SW) 1,443 -0.7 -20.3°
Enters shadow 21:18:24 51° 225° (SW) 513 -3.3 -20.8°
